Lid_Strength_Index
12 12 12 12 13 12 14 13 15 14 13 12 10 10 9 8 9 9 9 9 9 9 8 8 8 9 9 9 9 8 9 8 8 8 9 9 11 12 14 15 15 16 16 16
16 13 12 14 12 12 12 12 12 12 12 9 8 8 8 8 8 8 8 8 8 8 8 8 8 8 8 9 9 9 8 9 9 11 11 12 12 13 14 15 16 16 17 17
17 13 14 16 13 12 12 10 11 14 10 8 8 8 8 8 8 7 7 7 7 7 7 7 8 8 8 9 9 11 11 12 13 13 13 13 14 14 15 16 17 17 17 17
17 16 20 13 9 9 11 10 9 9 9 8 8 7 7 6 7 7 7 7 8 8 8 8 9 9 10 11 12 12 13 14 15 14 14 15 15 15 16 16 17 17 17 17
20 21 15 13 12 12 12 13 9 10 9 9 8 8 8 7 7 8 8 8 9 9 10 10 10 12 14 14 13 13 13 13 14 15 15 15 16 16 17 17 17 16 16 17
19 20 23 13 10 8 8 14 10 10 10 10 10 13 10 9 9 9 9 10 11 11 11 12 14 15 15 14 15 14 14 14 14 15 16 16 16 17 17 17 16 16 16 15
15 16 14 10 10 9 16 14 11 11 10 9 11 9 8 8 9 10 10 11 12 13 13 14 15 15 15 15 16 15 16 16 16 16 17 17 18 18 17 16 16 16 16 16
14 16 18 8 11 13 10 11 10 10 8 9 7 7 8 8 10 11 12 12 13 15 14 15 15 15 16 16 16 17 17 17 18 19 17 17 16 15 16 16 16 17 17 17
14 15 9 8 10 8 7 8 9 8 9 8 8 8 9 9 11 12 13 13 14 16 16 16 17 16 16 16 16 16 17 19 19 19 18 18 18 16 16 16 16 17 17 17
13 11 10 9 8 8 7 6 7 8 8 8 9 10 10 11 12 13 15 15 16 16 17 18 17 16 17 16 17 16 16 17 18 18 18 17 17 17 17 16 16 16 17 17
13 10 10 9 8 7 6 7 7 7 7 8 9 10 11 12 12 13 14 15 16 17 17 17 17 17 15 16 16 16 16 15 15 15 15 16 16 17 17 17 15 16 15 15
13 10 9 9 8 7 7 7 7 7 8 8 8 9 11 12 12 14 15 16 17 18 18 18 18 19 19 16 17 17 16 14 14 13 15 17 17 14 12 12 11 11 11 13
9 7 7 7 7 7 7 7 7 7 8 9 9 10 12 12 12 13 15 17 18 19 19 18 19 19 19 17 13 13 13 14 14 15 16 15 15 15 16 13 11 10 10 11
8 8 9 8 8 8 7 7 8 10 11 10 11 13 13 14 16 17 15 17 17 19 20 20 19 20 20 18 15 13 13 13 13 14 14 14 15 16 16 16 17 17 13 13
11 12 11 10 9 10 10 10 12 11 10 9 12 12 11 11 13 16 16 17 17 20 21 21 22 23 22 18 17 16 15 15 15 15 14 14 14 14 15 16 17 17 17 16
16 14 14 14 13 13 13 13 13 12 11 9 9 12 13 15 16 18 19 19 17 21 21 21 22 22 21 19 17 17 17 16 16 16 16 16 16 16 17 17 17 17 19 19
18 16 18 19 17 16 16 15 15 14 15 14 13 14 16 17 19 20 21 21 22 22 22 21 21 21 20 18 17 17 18 18 18 18 18 18 18 18 18 18 20 21 21 18
21 19 19 19 19 19 19 19 18 19 19 17 18 18 21 19 19 21 22 22 23 24 24 23 21 21 20 19 18 18 19 20 20 21 20 20 20 20 20 20 20 22 22 20
23 22 21 20 21 22 22 21 22 21 22 20 21 22 23 22 22 21 21 23 23 25 26 23 19 22 22 19 19 19 20 21 21 21 21 21 22 23 22 22 23 24 25 24
25 24 24 24 24 25 25 25 24 24 24 22 25 23 25 24 24 25 26 27 27 26 24 23 23 23 22 22 20 21 21 22 22 23 23 23 24 24 24 25 26 27 28 28
27 26 26 26 26 27 26 25 25 26 25 23 23 23 25 24 23 23 24 26 25 23 22 23 24 23 22 22 22 23 23 23 24 25 25 26 25 26 27 28 29 27 29 28
30 29 28 29 28 28 27 26 24 24 24 24 24 24 25 26 25 25 24 25 23 21 22 23 23 22 22 22 23 23 23 24 24 24 25 25 25 25 27 28 28 28 29 30
31 30 28 30 29 29 28 26 26 25 25 25 25 26 26 26 24 24 26 24 22 22 22 22 22 22 23 23 24 24 24 24 24 24 25 25 25 27 28 29 30 30 31 31
30 31 29 27 26 26 28 27 26 26 27 27 27 27 25 26 26 24 24 24 23 24 23 23 22 22 24 25 25 25 25 25 25 26 27 25 29 30 31 31 31 31 32 31
30 29 29 27 26 26 26 26 26 27 28 28 28 27 27 26 26 26 25 25 23 24 25 24 23 24 26 26 26 26 27 27 29 30 31 32 32 33 34 34 33 33 34 33
31 31 31 28 28 25 25 25 27 27 27 29 29 28 28 27 26 26 26 26 26 26 26 26 27 27 27 27 27 28 28 28 29 31 32 33 34 33 33 32 32 31 31 32
31 28 30 29 27 27 27 27 28 29 28 28 29 29 28 28 27 27 27 27 27 27 27 28 28 27 29 31 31 30 31 31 30 31 35 34 33 33 32 31 32 32 31 30